Location: *
(43.9905°S, 176.4941°W)
Time: 01:25:26
(UTC+00:00)

Mayak - Pass Details

Date: 08 December 2019
Orbit: 581 x 602 km, 97.5° (Epoch: 28 January)

Event Time Altitude Azimuth Distance (km) Brightness Sun altitude
Exits shadow 08:11:39 - 71° (ENE) 2,039 1.0 -8.3°
Reaches altitude 10° 08:12:05 10° 76° (ENE) 1,920 0.9 -8.4°
Maximum altitude 08:14:47 17° 116° (ESE) 1,526 0.7 -8.8°
Drops below altitude 10° 08:17:30 10° 156° (SSE) 1,940 1.7 -9.1°
Sets 08:20:17 0° 176° (S) 2,854 2.9 -9.5°
